Wind_Speed
7 9 10 13 9 6 6 7 8 3 7 4 5 5 7 7 9 9 10 11 12 12 11 14 18 19 18 19 19 17 18 14 9 4 4 9 13 24 25 23 23 26 21 19
3 10 9 4 6 4 6 8 8 1 5 6 1 2 4 7 9 10 10 11 12 12 12 16 18 19 18 19 19 18 16 16 13 8 4 11 13 18 21 26 25 27 30 26
10 6 6 4 7 8 1 8 10 7 10 6 6 8 6 3 5 8 10 10 11 13 14 15 20 21 21 19 18 18 17 15 14 12 9 6 14 13 18 24 27 25 25 32
5 3 6 5 5 9 3 9 7 6 5 4 3 3 8 7 3 7 10 10 10 12 13 14 17 18 18 18 17 17 17 17 14 14 12 10 8 12 19 19 26 26 23 25
3 6 9 8 7 8 4 9 4 4 4 6 5 5 7 7 6 6 10 10 11 11 11 13 16 17 16 17 18 17 16 16 16 16 15 15 15 13 9 19 25 23 26 26
4 1 3 5 8 5 13 5 4 3 2 3 2 4 4 3 3 5 8 9 10 11 11 15 17 17 17 18 18 18 16 15 14 16 15 15 16 17 13 10 19 22 23 25
2 2 2 6 8 2 12 6 1 2 2 2 2 5 5 4 2 5 7 7 8 9 11 12 16 19 20 20 19 18 18 18 16 14 14 13 15 15 16 16 11 18 22 25
4 1 5 8 4 5 7 5 3 4 4 6 4 4 3 3 2 3 4 6 7 9 10 11 15 16 17 19 20 18 18 17 17 16 15 13 14 13 14 15 16 11 19 25
3 2 0 2 3 4 3 5 2 2 2 3 1 3 4 2 6 6 5 6 7 9 10 10 14 15 16 17 16 16 18 17 15 15 16 14 12 12 14 15 17 18 12 19
2 4 1 1 2 2 3 1 1 0 5 5 0 4 3 4 2 4 4 5 7 8 10 10 13 14 14 16 16 16 16 16 15 15 13 14 14 13 13 14 15 16 15 12
2 1 1 2 2 3 1 1 1 2 1 3 5 2 3 3 4 4 4 4 7 8 8 9 13 13 13 13 14 15 17 17 16 16 14 12 12 12 11 11 8 10 13 14
3 2 4 1 1 2 3 1 1 2 3 2 2 5 2 1 3 5 6 4 5 6 8 10 11 13 14 14 15 15 16 17 19 16 14 12 10 9 7 5 3 4 7 7
2 1 3 2 1 2 5 5 5 1 0 6 2 2 1 3 5 6 7 5 4 4 6 8 10 12 13 14 15 15 16 17 20 17 14 13 12 12 11 10 8 8 9 10
2 1 4 4 2 2 4 6 8 7 3 2 10 12 11 5 7 6 4 4 4 3 3 4 6 8 10 11 13 15 15 16 19 15 13 14 15 14 13 14 15 15 16 17
2 3 1 8 11 10 10 9 9 13 12 6 2 5 15 10 8 8 4 2 3 4 3 3 3 6 8 10 11 12 13 16 17 15 15 15 14 14 15 17 19 20 21 21
2 2 3 5 2 3 7 12 12 12 13 15 15 21 16 5 2 1 4 5 6 4 3 3 3 4 7 9 10 12 14 12 12 16 16 15 16 18 19 20 22 23 23 23
4 2 1 4 1 5 6 7 15 6 10 7 9 9 3 2 3 4 6 8 6 5 2 3 2 2 4 6 7 9 9 9 9 9 11 16 17 17 18 18 21 25 24 24
4 2 1 4 3 3 1 2 5 10 7 17 9 12 6 4 4 5 7 9 8 6 4 3 1 0 3 4 6 6 7 8 8 8 10 13 13 16 17 17 19 18 21 24
2 3 1 3 3 8 3 4 6 7 5 19 19 16 11 5 5 13 12 12 9 7 7 6 4 2 2 3 4 6 7 7 8 10 12 15 10 11 15 15 13 14 21 24
2 3 2 1 3 4 2 5 3 2 4 7 15 12 11 7 4 4 5 9 11 9 10 10 7 4 3 2 3 5 5 7 9 9 10 9 9 11 13 13 13 17 21 18
4 4 7 6 5 9 3 9 7 1 1 3 8 9 13 10 5 4 4 5 9 11 12 11 9 6 4 2 2 2 2 4 4 6 6 6 8 8 10 11 12 15 17 16
9 9 5 5 5 8 11 8 7 1 1 2 4 7 12 11 5 4 6 6 11 13 14 13 11 10 8 5 4 3 3 3 4 5 4 4 6 7 8 11 13 15 15 16
5 5 6 10 6 2 16 3 7 2 2 3 3 5 9 8 9 9 8 9 13 15 15 17 16 14 12 10 9 8 7 7 5 4 4 5 6 7 8 9 10 11 11 11
5 3 3 1 6 16 13 14 16 8 8 3 4 4 8 10 10 10 9 10 14 19 21 21 20 18 17 16 14 12 10 10 9 7 5 4 5 6 7 8 7 8 7 7
2 9 6 6 12 9 15 15 17 15 14 10 8 9 10 9 10 11 9 12 17 21 24 25 26 25 24 20 18 16 14 14 11 10 9 8 7 7 8 8 7 7 8 8
7 8 7 8 7 5 5 5 8 14 15 15 13 12 14 14 11 13 10 19 21 23 25 27 28 28 26 24 23 21 20 18 15 13 12 11 10 9 8 7 8 7 7 8
Wind_Direction
25 56 28 18 13 4 336 324 338 18 351 326 39 55 48 47 39 39 30 30 27 31 28 12 8 8 4 17 6 5 359 358 3 316 300 289 250 245 214 229 225 226 211 205
126 45 9 352 8 349 357 352 352 287 2 298 245 102 80 51 55 41 32 28 20 13 15 12 9 7 4 11 354 351 355 349 353 354 255 244 254 250 238 236 237 231 225 224
63 21 330 349 17 352 56 12 341 312 323 260 271 231 202 139 66 55 44 34 24 14 5 5 3 5 2 358 343 342 344 342 338 334 323 258 239 235 226 226 231 229 232 232
59 0 355 359 25 352 350 354 318 305 284 320 219 343 187 161 134 50 34 27 24 16 4 2 0 358 356 351 345 342 340 339 337 335 331 323 297 238 229 222 228 230 237 237
36 8 360 15 358 333 353 330 309 308 284 311 193 265 98 169 206 28 21 20 17 16 6 359 3 356 351 350 347 343 339 337 334 335 335 328 320 297 279 240 230 239 242 242
78 330 19 338 318 302 313 298 242 271 297 238 85 269 144 166 11 353 11 16 16 10 8 7 359 355 353 350 350 345 341 337 335 331 327 322 318 313 299 267 227 226 241 242
5 15 44 359 315 191 359 348 322 217 220 347 129 260 337 120 77 3 348 358 1 359 2 360 2 356 352 352 350 346 342 337 334 327 320 313 307 306 301 288 291 243 230 235
10 212 21 4 21 331 8 5 24 308 338 332 146 248 83 107 151 332 318 329 342 355 357 356 354 357 354 350 349 346 343 338 335 329 321 311 305 298 293 288 284 292 244 239
334 233 158 49 332 326 352 38 350 287 186 252 243 160 146 195 255 270 316 318 352 356 355 352 350 352 350 351 350 345 341 337 335 330 326 319 309 300 294 293 284 276 286 240
137 285 336 25 270 230 342 37 230 181 339 311 315 282 5 199 248 306 295 332 350 354 352 350 352 349 351 350 348 346 345 341 336 335 331 324 317 308 297 291 284 275 264 266
120 280 51 286 22 348 171 86 25 300 316 317 317 64 122 167 1 321 302 330 343 347 348 349 350 349 349 351 354 351 349 346 344 341 337 333 330 322 312 314 287 275 278 269
115 308 287 293 206 307 287 272 235 305 113 252 291 282 114 125 318 300 293 301 338 342 346 348 350 348 347 355 356 355 353 350 349 346 344 347 353 356 358 359 352 257 201 225
115 175 294 216 211 203 256 223 222 122 244 231 259 295 157 239 274 280 278 287 314 335 340 340 351 355 352 354 353 356 359 356 357 356 359 6 16 25 32 48 73 105 120 116
127 278 243 277 344 28 229 232 222 196 216 232 236 287 288 250 250 248 267 253 266 278 284 317 334 344 351 351 351 357 358 1 6 6 8 18 27 35 48 68 82 90 95 95
254 265 278 276 278 276 258 255 216 216 221 221 115 260 277 285 267 251 239 230 244 272 255 279 305 337 348 350 351 355 1 6 6 16 20 22 41 52 66 76 83 87 88 84
170 299 356 280 325 274 272 259 235 237 250 260 264 280 287 282 348 292 240 219 247 256 223 265 280 328 360 357 352 357 5 7 8 22 29 32 54 66 73 82 86 85 85 82
180 226 346 272 325 303 273 232 201 196 212 201 199 226 272 276 266 240 230 217 228 252 255 190 238 309 359 359 352 4 7 6 16 25 32 48 61 71 79 82 89 87 87 87
170 149 235 288 307 262 185 139 201 215 231 218 240 239 240 269 294 267 236 227 221 219 210 208 221 332 43 4 2 10 23 19 20 29 36 48 49 68 75 80 82 90 95 92
264 179 206 292 290 297 170 197 192 191 284 215 225 240 232 234 289 270 225 220 218 199 187 176 171 150 97 45 13 24 32 27 35 27 34 41 41 61 77 73 73 83 91 88
173 266 209 148 273 263 61 152 166 176 278 199 208 224 205 163 238 267 161 199 199 183 169 167 165 171 117 76 39 40 33 43 35 31 42 45 53 64 73 76 78 85 90 94
177 194 212 202 261 281 183 145 143 281 336 164 211 198 180 191 215 104 120 168 192 181 164 163 167 181 181 171 106 91 83 76 69 59 60 74 81 85 91 97 95 97 98 98
179 162 183 176 221 273 137 130 189 24 145 178 191 206 203 202 145 155 174 160 167 168 167 181 180 191 198 195 183 180 192 175 123 105 106 119 117 117 118 115 109 105 104 101
228 205 181 200 215 119 195 254 235 356 290 210 204 201 212 211 207 192 190 184 185 185 184 198 200 198 202 202 204 203 208 199 182 137 136 120 130 123 120 115 112 112 116 114
228 159 233 76 245 234 226 239 250 257 226 244 239 181 197 214 212 210 193 191 193 197 195 201 200 204 210 209 208 208 207 201 194 188 175 149 135 137 133 123 121 125 126 127
137 148 184 254 273 271 264 241 246 240 228 231 231 226 216 210 217 215 205 197 198 204 207 207 207 213 216 212 213 211 206 203 195 195 198 192 183 167 155 150 142 143 148 150
186 183 191 228 195 187 254 211 237 224 228 228 223 227 226 210 215 198 214 205 202 205 212 212 216 218 220 216 214 213 208 204 199 198 201 201 197 191 182 162 141 130 130 133
Height
837 835 847 848 845 844 840 837 833 834 839 835 834 835 836 837 835 834 833 833 832 832 837 838 834 830 828 822 825 827 823 821 817 816 819 820 823 827 826 829 832 834 834 844
834 851 854 849 846 845 839 838 835 837 841 836 834 836 836 838 840 840 839 838 838 837 836 837 836 833 831 825 829 828 826 823 821 819 820 823 821 822 824 827 828 831 835 837
847 859 855 851 848 845 840 849 850 847 842 839 835 826 831 837 837 839 841 842 842 841 838 837 836 834 832 833 834 830 827 826 824 822 821 819 819 819 823 822 824 826 829 834
856 855 854 847 847 852 840 852 851 847 845 832 836 822 822 829 833 835 840 843 845 846 845 843 841 840 838 837 835 831 828 826 824 822 819 818 816 817 819 817 820 822 824 827
862 860 860 852 860 857 850 853 851 847 843 840 835 836 820 827 829 834 840 845 846 848 847 844 843 843 841 838 835 832 829 827 823 820 818 815 815 815 814 815 818 818 820 821
862 867 861 863 860 860 854 850 848 845 842 842 834 838 814 821 830 838 842 845 847 848 847 845 844 843 841 839 836 833 830 827 824 820 818 816 815 813 811 812 812 813 815 817
860 864 864 867 857 854 851 848 837 838 839 830 840 841 818 836 844 847 846 846 847 848 847 846 845 842 840 839 837 834 831 827 824 822 820 817 815 813 812 810 809 810 811 813
865 857 868 870 873 871 860 856 856 848 838 833 838 832 825 839 846 847 847 846 845 846 847 847 846 845 843 839 837 835 832 828 824 821 819 817 814 812 810 808 807 806 808 809
871 865 870 872 872 871 864 864 869 871 873 864 824 822 839 845 843 842 844 845 845 847 848 847 846 845 844 842 840 837 833 829 825 821 817 814 813 812 809 807 807 806 805 806
889 872 882 871 874 870 865 867 866 860 852 840 820 825 818 838 835 837 841 844 845 847 848 847 847 845 844 842 839 836 833 829 825 821 818 813 810 809 808 806 804 803 804 805
898 893 876 876 876 871 863 864 861 863 865 855 843 813 830 833 837 842 841 845 848 849 849 848 847 846 844 843 840 837 833 829 825 821 817 814 810 806 804 802 800 801 802 803
884 888 870 874 879 876 873 865 865 860 865 864 873 840 836 839 843 846 845 845 848 851 851 850 848 846 844 842 840 837 833 829 826 822 818 813 809 806 804 802 800 800 800 801
882 883 864 868 879 876 878 865 864 869 877 868 861 821 841 843 845 846 846 847 851 852 852 851 849 847 846 843 839 836 834 830 826 822 818 815 810 807 804 802 801 799 799 799
886 893 881 848 855 866 883 883 865 873 867 849 850 837 835 846 848 847 850 854 855 856 854 853 851 849 847 845 841 838 835 832 828 825 821 817 813 811 808 805 803 802 802 802
884 887 903 887 878 873 873 871 874 868 857 862 847 862 839 841 844 844 846 847 853 855 854 853 850 848 847 845 843 840 837 833 830 827 825 822 818 815 813 810 808 807 807 806
886 883 899 893 891 885 879 870 872 873 867 859 854 849 832 831 837 843 845 849 849 846 849 850 849 847 847 845 844 842 839 836 834 831 828 825 822 820 817 816 814 812 813 814
882 885 887 862 894 895 865 857 856 852 853 848 848 829 824 832 830 834 835 839 841 840 841 845 846 846 847 847 846 844 841 839 838 836 833 830 827 825 823 821 820 816 819 818
885 889 892 875 879 832 829 840 840 843 839 837 827 823 824 826 827 828 829 829 832 836 838 841 844 845 847 847 846 845 843 842 840 839 836 833 833 831 828 826 825 825 823 820
885 881 885 887 873 833 833 842 842 837 812 816 818 814 818 822 830 820 822 824 827 832 835 839 842 844 846 847 847 846 844 843 841 840 837 835 837 834 832 832 832 831 827 824
890 887 885 899 877 829 809 827 832 831 810 801 806 810 813 823 820 807 812 820 826 830 834 838 840 842 844 846 846 845 845 844 843 841 840 840 840 838 836 837 836 833 831 834
892 891 886 886 876 838 813 827 831 824 801 801 802 803 808 816 808 814 817 821 825 830 833 836 838 840 842 844 844 845 846 845 845 844 843 843 842 842 841 841 839 838 838 840
867 873 883 881 878 845 821 834 817 798 803 803 805 804 804 807 810 815 817 821 824 828 831 834 835 837 838 840 842 844 846 845 845 845 845 845 844 844 844 843 842 842 842 843
857 835 844 842 824 813 814 801 804 805 802 804 803 804 806 808 809 811 814 818 821 824 828 831 833 835 837 838 840 842 843 844 845 845 846 846 845 845 844 844 844 844 844 845
849 846 841 840 803 809 810 804 804 805 804 802 803 801 805 804 805 807 809 812 816 819 822 826 829 832 833 835 836 838 840 842 843 845 846 846 845 845 845 845 845 846 846 847
832 841 834 831 811 808 801 801 791 792 798 798 799 800 800 801 800 802 805 807 809 812 817 820 822 825 827 831 833 835 837 839 841 843 844 845 846 846 846 846 847 846 845 846
825 817 814 789 788 781 778 779 782 789 789 788 792 794 794 795 793 794 797 800 802 805 809 813 815 818 822 825 828 830 833 835 837 839 841 843 845 846 846 846 846 846 845 844